Location: Newark
(44.2003°N, 3.2583°E)
Time: 14:49:27
(UTC+00:00)

Transit 2A Rocket - All Passes

Search period start: 15 October 2019 00:00
Search period end: 25 October 2019 00:00
Orbit: 593 x 910 km, 66.7° (Epoch: 14 October)

Date Brightness Start Highest point End Pass type
(mag) Time Alt. Az. Time Alt. Az. Time Alt. Az.
15 Oct - 05:18:23 10° S 05:23:15 40° ESE 05:27:44 10° NE visible
15 Oct - 07:01:24 10° WSW 07:05:51 30° NW 07:10:02 10° NNE daylight
15 Oct - 14:00:17 10° NNW 14:04:23 40° NE 14:08:29 10° ESE daylight
15 Oct - 15:43:22 10° WNW 15:46:39 21° WSW 15:49:57 10° SSW daylight
16 Oct - 04:36:49 10° SSE 04:40:52 23° ESE 04:44:42 10° ENE visible
16 Oct - 06:18:13 10° SW 06:23:12 49° NW 06:27:46 10° NNE daylight
16 Oct - 08:06:18 10° NW 08:06:48 10° NNW 08:07:19 10° NNW daylight
16 Oct - 13:18:05 10° N 13:21:41 25° NE 13:25:14 10° ESE daylight
16 Oct - 15:00:18 10° NW 15:04:19 39° WSW 15:08:23 10° S daylight
17 Oct - 03:56:14 10° SE 03:58:36 13° ESE 04:00:53 10° ENE visible
17 Oct - 05:35:27 10° SSW 05:40:37 83° WNW 05:45:23 10° NNE visible
17 Oct - 07:21:00 10° WNW 07:23:49 15° NW 07:26:33 10° N daylight
17 Oct - 12:36:09 10° N 12:38:50 16° NE 12:41:31 10° E daylight
17 Oct - 14:17:35 10° NW 14:21:54 75° WSW 14:26:15 10° SSE daylight
18 Oct - 04:53:03 10° SSW 04:58:08 58° ESE 05:02:48 10° NE visible
18 Oct - 06:37:03 10° W 06:40:58 23° NW 06:44:40 10° N daylight
18 Oct - 11:55:05 10° NNE 11:55:53 10° NNE 11:56:40 10° NE daylight
18 Oct - 13:35:06 10° NNW 13:39:23 59° NE 13:43:40 10° SE daylight
18 Oct - 15:19:04 10° WNW 15:21:24 14° WSW 15:23:45 10° SW daylight
19 Oct - 04:11:07 10° S 04:15:43 33° ESE 04:19:59 10° NE visible
19 Oct - 05:53:36 10° WSW 05:58:14 35° NW 06:02:31 10° NNE daylight
19 Oct - 12:52:47 10° NNW 12:56:45 34° NE 13:00:42 10° ESE daylight
19 Oct - 14:35:32 10° NW 14:39:08 26° WSW 14:42:48 10° S daylight
20 Oct - 03:29:48 10° SSE 03:33:23 19° ESE 03:36:46 10° ENE visible
20 Oct - 05:10:34 10° SW 05:15:36 58° NW 05:20:14 10° NNE visible
20 Oct - 06:57:26 10° NW 06:59:03 11° NW 07:00:38 10° NNW daylight
20 Oct - 12:10:40 10° N 12:13:59 21° NE 12:17:18 10° E daylight
20 Oct - 13:52:37 10° NW 13:56:46 49° WSW 14:00:59 10° S daylight
21 Oct - 02:50:17 10° ESE 02:51:08 10° ESE 02:51:59 10° E visible
21 Oct - 04:27:55 10° SSW 04:33:03 83° ESE 04:37:46 10° NNE visible
21 Oct - 06:12:54 10° W 06:16:07 17° NW 06:19:12 10° N daylight
21 Oct - 11:28:53 10° N 11:31:07 14° NE 11:33:21 10° ENE daylight
21 Oct - 13:09:59 10° NNW 13:14:19 88° ENE 13:18:42 10° SSE daylight
22 Oct - 03:45:40 10° S 03:50:35 47° ESE 03:55:07 10° NE visible
22 Oct - 05:29:09 10° WSW 05:33:18 26° NW 05:37:12 10° N visible
22 Oct - 12:27:34 10° NNW 12:31:45 48° NE 12:35:59 10° SE daylight
22 Oct - 14:10:59 10° WNW 14:13:54 18° WSW 14:16:51 10° SSW daylight
23 Oct - 03:03:55 10° SSE 03:08:12 27° ESE 03:12:12 10° NE visible
23 Oct - 04:45:51 10° WSW 04:50:36 41° NW 04:55:01 10° NNE visible
23 Oct - 11:45:19 10° NNW 11:49:05 28° NE 11:52:52 10° ESE daylight
23 Oct - 13:27:45 10° NW 13:31:36 32° WSW 13:35:32 10° S daylight
24 Oct - 02:22:57 10° SE 02:25:54 16° ESE 02:28:43 10° ENE visible
24 Oct - 04:02:56 10° SW 04:08:00 70° WNW 04:12:39 10° NNE visible
24 Oct - 05:49:05 10° WNW 05:51:19 13° NW 05:53:30 10° N daylight
24 Oct - 11:03:17 10° N 11:06:17 18° NE 11:09:18 10° E daylight
24 Oct - 12:44:58 10° NW 12:49:13 61° WSW 12:53:32 10° SSE daylight
